Fort Indiantown Gap, PA

10:25 AM EDT on October 22, 2019 (GMT -0400)
Muir Army Air Field

Weather History for KMUI - September, 2019

Change the Weather History Date:

Saturday, September 21, 2019

  Actual Average Record
Temperature  
Mean Temperature 66 °F -  
Max Temperature 85 °F 70 °F 85 °F (2017)
Min Temperature 46 °F 54 °F 40 °F (2010)
Growing Degree Days 16 (Base 50)    
Moisture  
Dew Point 53 °F    
Average Humidity 71    
Maximum Humidity 96    
Minimum Humidity 31    
Precipitation  
Precipitation 0.00 in - - ()
Sea Level Pressure  
Sea Level Pressure 30.22 in    
Wind  
Wind Speed 1 mph (WSW)    
Max Wind Speed 10 mph    
Max Gust Speed -    
Visibility 10 miles    
Events      
Averages and records for this station are not official NWS values.
T = Trace of Precipitation, MM = Missing Value Source: NWS Daily Summary

Daily Weather History Graph

Daily Weather History Graph

Search for Another Location

Airport or City:

Astronomy

Sep. 21, 2019 Rise Set
Actual Time 6:52 AM EDT 7:05 PM EDT
Civil Twilight 6:25 AM EDT 7:32 PM EDT
Nautical Twilight 5:53 AM EDT 8:04 PM EDT
Astronomical Twilight 5:20 AM EDT 8:36 PM EDT
Moon 11:40 PM EDT (9/21) 1:57 PM EDT (9/21)
Length of Visible Light 13h 07m
Length of Day
12h 12m
Waning Gibbous, 55% of the Moon is Illuminated
Sep 21
Waning Gibbous
Sep 21
Last Quarter
Sep 28
New
Oct 5
First Quarter
Oct 13
Full

Hourly Weather History & Observations

Time (EDT) Temp. Heat Index Dew Point Humidity Pressure Visibility Wind Dir Wind Speed Gust Speed Precip Events Conditions
12:56 AM 51.8 °F - 49.5 °F 92% 30.25 in 10.0 mi Calm Calm - N/A   Clear
1:56 AM 51.4 °F - 49.1 °F 92% 30.25 in 10.0 mi Calm Calm - N/A   Clear
2:56 AM 50.4 °F - 48.7 °F 94% 30.24 in 10.0 mi Calm Calm - N/A   Clear
3:56 AM 49.6 °F - 48.0 °F 94% 30.24 in 10.0 mi Calm Calm - N/A   Clear
4:56 AM 49.3 °F - 47.7 °F 94% 30.24 in 10.0 mi Calm Calm - N/A   Clear
5:56 AM 48.7 °F - 47.7 °F 96% 30.25 in 10.0 mi Calm Calm - N/A   Clear
6:56 AM 46.2 °F - 44.8 °F 95% 30.26 in 8.0 mi Calm Calm - N/A   Clear
7:56 AM 50.5 °F - 48.9 °F 94% 30.26 in 10.0 mi Calm Calm - N/A   Clear
8:56 AM 58.5 °F - 52.0 °F 79% 30.27 in 10.0 mi Calm Calm - N/A   Clear
9:56 AM 65.5 °F - 53.8 °F 66% 30.26 in 10.0 mi Calm Calm - N/A   Clear
10:56 AM 73.0 °F - 55.9 °F 55% 30.26 in 10.0 mi Calm Calm - N/A   Clear
11:56 AM 78.4 °F - 57.0 °F 48% 30.24 in 10.0 mi SSE 3.5 mph - N/A   Clear
12:56 PM 82.9 °F 82.4 °F 56.8 °F 41% 30.22 in 10.0 mi South 4.6 mph - N/A   Clear
1:56 PM 83.3 °F 82.1 °F 53.6 °F 36% 30.21 in 10.0 mi West 6.9 mph - N/A   Clear
2:56 PM 85.5 °F - 51.3 °F 31% 30.19 in 10.0 mi West 10.4 mph - N/A   Clear
3:56 PM 84.9 °F - 51.8 °F 32% 30.18 in 10.0 mi North 4.6 mph - N/A   Clear
4:56 PM 84.4 °F 83.2 °F 55.2 °F 37% 30.17 in 10.0 mi Calm Calm - N/A   Clear
6:56 PM 75.6 °F - 60.6 °F 60% 30.17 in 10.0 mi Calm Calm - N/A   Clear
7:56 PM 69.6 °F - 59.0 °F 69% 30.18 in 10.0 mi Calm Calm - N/A   Clear
8:56 PM 65.5 °F - 58.1 °F 77% 30.19 in 10.0 mi Calm Calm - N/A   Clear
9:56 PM 64.9 °F - 57.9 °F 78% 30.20 in 10.0 mi Calm Calm - N/A   Clear
10:56 PM 62.6 °F - 57.9 °F 85% 30.21 in 10.0 mi Calm Calm - N/A   Clear
11:56 PM 61.3 °F - 57.4 °F 87% 30.20 in 10.0 mi Calm Calm - N/A   Mostly Cloudy